AFR1530 LFPG-DAOO

Flight info

Callsign AFR1530
Flight time 2h 11m
Altitude 37000
Route ERIXU DCT ETAMO DCT GUERE DCT AGN DCT ANETO DCT TURUV DCT GRAUS DCT LOBAR DCT SEROX DCT CASPE DCT MLA DCT CRETA DCT RIMES DCT SAURA DCT TATOS DCT PLANA DCT VLC DCT RIPUX DCT SUMMO DCT MAGAL DCT LIMTU DCT RINDI DCT HAMRA UA34 MOS
Aircraft A320/M-SDE2E3FGIJ1RWY/HB1

Departure

Time 2026-05-05 18:25
Airport Charles de Gaulle International Airport (LFPG)

Arrival

Time 2026-05-05 20:37
Airport Oran Es-Sénia (Ahmed Ben Bella) International Airport (DAOO)
Time Latitude Longitude Altitude Speed Heading
2026-05-05 18:00 49.00291 2.58414 354 ft 0 kts 85°
2026-05-05 18:15 49.00290 2.58390 362 ft 4 kts 90°
2026-05-05 18:16 49.00293 2.58350 362 ft 4 kts 106°
2026-05-05 18:16 49.00303 2.58313 362 ft 4 kts 131°
2026-05-05 18:16 49.00324 2.58291 359 ft 4 kts 171°
2026-05-05 18:16 49.00329 2.58290 358 ft 0 kts 176°
2026-05-05 18:20 49.00327 2.58290 358 ft 3 kts 176°
2026-05-05 18:20 49.00251 2.58299 357 ft 13 kts 175°
2026-05-05 18:20 49.00182 2.58307 354 ft 8 kts 175°
2026-05-05 18:20 49.00083 2.58319 354 ft 17 kts 175°
2026-05-05 18:21 49.00007 2.58283 354 ft 6 kts 268°
2026-05-05 18:21 49.00007 2.58217 354 ft 11 kts 268°
2026-05-05 18:21 48.99998 2.58050 354 ft 17 kts 265°
2026-05-05 18:21 48.99989 2.57877 354 ft 16 kts 265°
2026-05-05 18:22 48.99979 2.57672 354 ft 25 kts 265°
2026-05-05 18:22 48.99965 2.57412 354 ft 23 kts 265°
2026-05-05 18:22 48.99952 2.57176 357 ft 21 kts 265°
2026-05-05 18:22 48.99941 2.56960 354 ft 21 kts 265°
2026-05-05 18:23 48.99929 2.56739 362 ft 20 kts 265°
2026-05-05 18:23 48.99918 2.56531 354 ft 21 kts 265°
2026-05-05 18:23 48.99905 2.56285 354 ft 23 kts 265°
2026-05-05 18:23 48.99891 2.56065 354 ft 17 kts 254°
2026-05-05 18:24 48.99807 2.56021 361 ft 11 kts 174°
2026-05-05 18:24 48.99728 2.56031 354 ft 16 kts 175°
2026-05-05 18:24 48.99625 2.56048 354 ft 9 kts 156°
2026-05-05 18:24 48.99615 2.56110 359 ft 9 kts 88°
2026-05-05 18:25 48.99640 2.56583 361 ft 85 kts 85°
2026-05-05 18:25 48.99659 2.56927 360 ft 110 kts 85°
2026-05-05 18:25 48.99797 2.59619 761 ft 173 kts 83°
2026-05-05 18:25 48.99896 2.61483 1624 ft 176 kts 80°
2026-05-05 18:26 48.99995 2.63313 2482 ft 178 kts 81°
2026-05-05 18:26 49.00100 2.65210 3177 ft 182 kts 82°
2026-05-05 18:26 49.00203 2.67129 3662 ft 185 kts 82°
2026-05-05 18:26 49.00316 2.69159 3951 ft 200 kts 83°
2026-05-05 18:27 49.00431 2.71325 4449 ft 206 kts 83°
2026-05-05 18:27 49.00544 2.73512 5055 ft 207 kts 83°
2026-05-05 18:27 49.00655 2.75693 5581 ft 212 kts 83°
2026-05-05 18:27 49.00739 2.77951 6184 ft 218 kts 90°
2026-05-05 18:28 49.00317 2.83037 6755 ft 264 kts 98°
2026-05-05 18:28 48.99984 2.85837 7386 ft 272 kts 99°
2026-05-05 18:28 48.99643 2.88704 7869 ft 277 kts 99°
2026-05-05 18:29 48.99312 2.91590 7981 ft 276 kts 99°
2026-05-05 18:29 48.98997 2.94473 7996 ft 276 kts 98°
2026-05-05 18:29 48.98560 2.97342 8198 ft 282 kts 114°
2026-05-05 18:29 48.97403 2.99738 9009 ft 283 kts 139°
2026-05-05 18:30 48.95711 3.01181 9790 ft 286 kts 164°
2026-05-05 18:30 48.93732 3.01418 10423 ft 292 kts 188°
2026-05-05 18:30 48.91783 3.00275 10625 ft 313 kts 217°
2026-05-05 18:30 48.90284 2.97797 11129 ft 323 kts 233°
2026-05-05 18:31 48.88929 2.95053 11838 ft 325 kts 233°
2026-05-05 18:31 48.88030 2.93238 12322 ft 327 kts 233°
2026-05-05 18:31 48.86653 2.90459 13061 ft 329 kts 233°
2026-05-05 18:31 48.85272 2.87671 13748 ft 331 kts 233°
2026-05-05 18:32 48.83882 2.84860 14344 ft 335 kts 233°
2026-05-05 18:32 48.82477 2.82019 14924 ft 338 kts 233°
2026-05-05 18:32 48.81056 2.79155 15501 ft 341 kts 232°
2026-05-05 18:32 48.79620 2.76268 16068 ft 345 kts 232°
2026-05-05 18:33 48.78165 2.73343 16638 ft 349 kts 232°
2026-05-05 18:33 48.76697 2.70389 17195 ft 352 kts 232°
2026-05-05 18:33 48.75213 2.67407 17758 ft 356 kts 232°
2026-05-05 18:33 48.73734 2.64444 18284 ft 359 kts 232°
2026-05-05 18:34 48.72197 2.61369 18761 ft 363 kts 232°
2026-05-05 18:34 48.70693 2.58355 19062 ft 366 kts 232°
2026-05-05 18:34 48.68973 2.55490 19249 ft 377 kts 217°
2026-05-05 18:34 48.66650 2.53520 19408 ft 387 kts 198°
2026-05-05 18:35 48.63985 2.52806 19772 ft 392 kts 184°
2026-05-05 18:35 48.61248 2.52491 20219 ft 396 kts 184°
2026-05-05 18:35 48.58482 2.52193 20668 ft 399 kts 183°
2026-05-05 18:35 48.55694 2.51900 21122 ft 402 kts 183°
2026-05-05 18:36 48.52888 2.51604 21556 ft 405 kts 183°
2026-05-05 18:36 48.50096 2.51307 21977 ft 409 kts 183°
2026-05-05 18:36 48.47247 2.51000 22392 ft 412 kts 183°
2026-05-05 18:36 48.44370 2.50683 22793 ft 415 kts 183°
2026-05-05 18:37 48.41480 2.50363 23180 ft 418 kts 183°
2026-05-05 18:37 48.38562 2.50045 23533 ft 422 kts 183°
2026-05-05 18:37 48.35622 2.49727 23862 ft 424 kts 183°
2026-05-05 18:37 48.32667 2.49409 24204 ft 426 kts 183°
2026-05-05 18:38 48.29739 2.49094 24534 ft 428 kts 183°
2026-05-05 18:38 48.26764 2.48770 24871 ft 429 kts 183°
2026-05-05 18:38 48.23773 2.48441 25205 ft 431 kts 183°
2026-05-05 18:38 48.20771 2.48114 25530 ft 432 kts 183°
2026-05-05 18:39 48.17768 2.47791 25778 ft 434 kts 183°
2026-05-05 18:39 48.14758 2.47469 25834 ft 433 kts 183°
2026-05-05 18:39 48.11750 2.47147 25832 ft 432 kts 183°
2026-05-05 18:39 48.08728 2.46823 25839 ft 440 kts 183°
2026-05-05 18:40 48.05658 2.46493 25958 ft 446 kts 183°
2026-05-05 18:40 48.02544 2.46156 26091 ft 450 kts 183°
2026-05-05 18:40 47.99395 2.45816 26223 ft 454 kts 183°
2026-05-05 18:40 47.96268 2.45483 26348 ft 458 kts 183°
2026-05-05 18:41 47.93082 2.45147 26482 ft 460 kts 183°
2026-05-05 18:41 47.89878 2.44810 26614 ft 462 kts 183°
2026-05-05 18:41 47.86658 2.44470 26748 ft 464 kts 183°
2026-05-05 18:41 47.83435 2.44127 26879 ft 465 kts 183°
2026-05-05 18:42 47.80215 2.43784 27012 ft 465 kts 183°
2026-05-05 18:42 47.76977 2.43440 27144 ft 466 kts 183°
2026-05-05 18:42 47.73746 2.43095 27277 ft 466 kts 183°
2026-05-05 18:42 47.70503 2.42749 27413 ft 466 kts 183°
2026-05-05 18:43 47.67269 2.42409 27546 ft 466 kts 183°
2026-05-05 18:43 47.64038 2.42071 27683 ft 466 kts 183°
2026-05-05 18:43 47.60796 2.41732 27824 ft 466 kts 183°
2026-05-05 18:43 47.57565 2.41393 28042 ft 464 kts 183°
2026-05-05 18:44 47.54393 2.41057 28955 ft 448 kts 183°
2026-05-05 18:44 47.51336 2.40734 29383 ft 447 kts 182°
2026-05-05 18:44 47.48221 2.40406 29524 ft 450 kts 183°
2026-05-05 18:44 47.45084 2.40080 29678 ft 452 kts 182°
2026-05-05 18:45 47.41940 2.39757 29824 ft 455 kts 182°
2026-05-05 18:45 47.38774 2.39426 29967 ft 456 kts 182°
2026-05-05 18:45 47.35608 2.39089 30170 ft 455 kts 183°
2026-05-05 18:45 47.32455 2.38752 30391 ft 454 kts 183°
2026-05-05 18:46 47.29308 2.38417 30606 ft 453 kts 183°
2026-05-05 18:46 47.26170 2.38088 30821 ft 452 kts 183°
2026-05-05 18:46 47.23033 2.37763 31039 ft 451 kts 183°
2026-05-05 18:46 47.19906 2.37443 31245 ft 450 kts 183°
2026-05-05 18:47 47.16788 2.37124 31453 ft 449 kts 183°
2026-05-05 18:47 47.13670 2.36803 31654 ft 449 kts 184°
2026-05-05 18:47 47.10546 2.36482 31852 ft 448 kts 184°
2026-05-05 18:47 47.07442 2.36158 32053 ft 447 kts 184°
2026-05-05 18:48 47.04371 2.35834 32249 ft 447 kts 184°
2026-05-05 18:48 47.01275 2.35510 32449 ft 446 kts 184°
2026-05-05 18:48 46.98139 2.35184 32652 ft 446 kts 184°
2026-05-05 18:48 46.95087 2.34869 32838 ft 445 kts 184°
2026-05-05 18:49 46.91998 2.34553 33030 ft 445 kts 184°
2026-05-05 18:49 46.88910 2.34238 33224 ft 444 kts 184°
2026-05-05 18:49 46.85825 2.33925 33417 ft 444 kts 185°
2026-05-05 18:49 46.82775 2.33256 33603 ft 443 kts 193°
2026-05-05 18:50 46.79793 2.32119 33792 ft 443 kts 195°
2026-05-05 18:50 46.76820 2.30967 33964 ft 442 kts 195°
2026-05-05 18:50 46.73841 2.29819 34119 ft 442 kts 195°
2026-05-05 18:50 46.70867 2.28678 34280 ft 442 kts 195°
2026-05-05 18:51 46.67898 2.27542 34435 ft 442 kts 195°
2026-05-05 18:51 46.64922 2.26401 34593 ft 441 kts 195°
2026-05-05 18:51 46.61952 2.25260 34755 ft 441 kts 195°
2026-05-05 18:51 46.59022 2.24139 34900 ft 441 kts 195°
2026-05-05 18:52 46.56054 2.23005 35054 ft 441 kts 195°
2026-05-05 18:52 46.53088 2.21871 35185 ft 440 kts 195°
2026-05-05 18:52 46.50124 2.20739 35315 ft 440 kts 195°
2026-05-05 18:52 46.47155 2.19609 35448 ft 440 kts 195°
2026-05-05 18:53 46.44191 2.18483 35571 ft 440 kts 195°
2026-05-05 18:53 46.41227 2.17357 35697 ft 440 kts 195°
2026-05-05 18:53 46.38257 2.16231 35818 ft 440 kts 195°
2026-05-05 18:53 46.35294 2.15108 35939 ft 440 kts 195°
2026-05-05 18:54 46.32372 2.14001 36064 ft 440 kts 195°
2026-05-05 18:54 46.29414 2.12878 36191 ft 439 kts 195°
2026-05-05 18:54 46.26450 2.11754 36318 ft 439 kts 195°
2026-05-05 18:54 46.23490 2.10636 36444 ft 439 kts 195°
2026-05-05 18:55 46.20537 2.09521 36571 ft 439 kts 195°
2026-05-05 18:55 46.17630 2.08194 36699 ft 437 kts 201°
2026-05-05 18:55 46.14787 2.06620 36852 ft 437 kts 201°
2026-05-05 18:55 46.11941 2.05046 36898 ft 439 kts 201°
2026-05-05 18:56 46.06254 2.01917 36903 ft 441 kts 201°
2026-05-05 18:56 46.00502 1.98772 36905 ft 442 kts 201°
2026-05-05 18:57 45.94749 1.95636 36908 ft 442 kts 201°
2026-05-05 18:57 45.89008 1.92497 36916 ft 442 kts 201°
2026-05-05 18:58 45.83257 1.89365 36920 ft 442 kts 201°
2026-05-05 18:58 45.77504 1.86236 36924 ft 442 kts 201°
2026-05-05 18:59 45.71782 1.83134 36925 ft 442 kts 201°
2026-05-05 18:59 45.66027 1.80017 36931 ft 442 kts 201°
2026-05-05 19:00 45.60269 1.76905 36929 ft 442 kts 201°
2026-05-05 19:00 45.54511 1.73799 36932 ft 442 kts 201°
2026-05-05 19:01 45.48759 1.70697 36936 ft 442 kts 201°
2026-05-05 19:01 45.43000 1.67613 36933 ft 441 kts 201°
2026-05-05 19:02 45.37288 1.64549 36933 ft 441 kts 201°
2026-05-05 19:02 45.31539 1.61472 36933 ft 441 kts 201°
2026-05-05 19:03 45.25792 1.58413 36934 ft 441 kts 201°
2026-05-05 19:03 45.20045 1.55366 36929 ft 441 kts 201°
2026-05-05 19:04 45.14333 1.52340 36927 ft 440 kts 201°
2026-05-05 19:04 45.08593 1.49288 36934 ft 440 kts 201°
2026-05-05 19:05 45.02855 1.46243 36931 ft 440 kts 201°
2026-05-05 19:05 44.97101 1.43214 36929 ft 440 kts 201°
2026-05-05 19:06 44.91353 1.40202 36950 ft 440 kts 201°
2026-05-05 19:06 44.85645 1.37210 36943 ft 440 kts 201°
2026-05-05 19:07 44.79902 1.34202 36937 ft 440 kts 201°
2026-05-05 19:07 44.74157 1.31194 36933 ft 440 kts 202°
2026-05-05 19:08 44.68409 1.28190 36938 ft 440 kts 202°
2026-05-05 19:08 44.62669 1.25197 36940 ft 440 kts 202°
2026-05-05 19:09 44.56930 1.22213 36944 ft 439 kts 202°
2026-05-05 19:09 44.51245 1.19264 36947 ft 439 kts 202°
2026-05-05 19:10 44.45518 1.16308 36943 ft 439 kts 202°
2026-05-05 19:10 44.39787 1.13358 36949 ft 438 kts 202°
2026-05-05 19:11 44.34067 1.10403 36947 ft 438 kts 202°
2026-05-05 19:11 44.28372 1.07475 36950 ft 438 kts 202°
2026-05-05 19:12 44.22650 1.04538 36955 ft 438 kts 202°
2026-05-05 19:12 44.16923 1.01601 36956 ft 438 kts 202°
2026-05-05 19:13 44.11194 0.98665 36959 ft 438 kts 202°
2026-05-05 19:13 44.05511 0.95764 36956 ft 438 kts 202°
2026-05-05 19:14 43.99783 0.92851 36960 ft 438 kts 202°
2026-05-05 19:14 43.94061 0.89955 36963 ft 438 kts 202°
2026-05-05 19:15 43.88301 0.87194 36960 ft 439 kts 196°
2026-05-05 19:15 43.82300 0.85547 36965 ft 440 kts 193°
2026-05-05 19:16 43.76319 0.83952 36961 ft 440 kts 194°
2026-05-05 19:16 43.70311 0.82338 36967 ft 440 kts 194°
2026-05-05 19:17 43.64294 0.80732 36975 ft 440 kts 194°
2026-05-05 19:17 43.58283 0.79147 36981 ft 440 kts 194°
2026-05-05 19:18 43.52277 0.77551 36979 ft 439 kts 194°
2026-05-05 19:18 43.46308 0.75960 36990 ft 439 kts 194°
2026-05-05 19:19 43.40295 0.74364 36983 ft 439 kts 194°
2026-05-05 19:19 43.34292 0.72779 36990 ft 439 kts 194°
2026-05-05 19:20 43.28283 0.71197 36990 ft 439 kts 194°
2026-05-05 19:20 43.22324 0.69646 36997 ft 438 kts 194°
2026-05-05 19:21 43.16334 0.68078 36999 ft 438 kts 194°
2026-05-05 19:21 43.10347 0.66504 37003 ft 438 kts 194°
2026-05-05 19:22 43.04355 0.64932 37001 ft 438 kts 194°
2026-05-05 19:22 42.99374 0.63638 37001 ft 438 kts 194°
2026-05-05 19:23 42.93392 0.62085 36993 ft 437 kts 194°
2026-05-05 19:23 42.86443 0.60284 36988 ft 436 kts 194°
2026-05-05 19:24 42.81449 0.58994 36985 ft 435 kts 195°
2026-05-05 19:24 42.75519 0.57457 36982 ft 436 kts 195°
2026-05-05 19:25 42.69545 0.55908 36985 ft 436 kts 195°
2026-05-05 19:25 42.63582 0.54370 36981 ft 436 kts 195°
2026-05-05 19:26 42.57615 0.52841 36972 ft 436 kts 195°
2026-05-05 19:26 42.51658 0.51315 36970 ft 435 kts 195°
2026-05-05 19:27 42.45701 0.49793 36953 ft 435 kts 195°
2026-05-05 19:27 42.39785 0.48286 36951 ft 435 kts 195°
2026-05-05 19:28 42.33832 0.46770 36943 ft 435 kts 195°
2026-05-05 19:28 42.27889 0.45255 36938 ft 434 kts 195°
2026-05-05 19:29 42.21956 0.43735 36936 ft 434 kts 195°
2026-05-05 19:29 42.16051 0.42231 36935 ft 433 kts 195°
2026-05-05 19:30 42.10117 0.40739 36937 ft 433 kts 195°
2026-05-05 19:30 42.04194 0.39250 36930 ft 433 kts 195°
2026-05-05 19:31 41.98273 0.37744 36927 ft 433 kts 195°
2026-05-05 19:31 41.92355 0.36248 36925 ft 433 kts 195°
2026-05-05 19:32 41.86435 0.34765 36921 ft 432 kts 195°
2026-05-05 19:32 41.80555 0.33289 36915 ft 432 kts 195°
2026-05-05 19:33 41.74642 0.31805 36917 ft 432 kts 195°
2026-05-05 19:33 41.68728 0.30326 36915 ft 432 kts 195°
2026-05-05 19:34 41.62816 0.28860 36918 ft 432 kts 196°
2026-05-05 19:35 41.53996 0.26668 36927 ft 431 kts 196°
2026-05-05 19:35 41.48095 0.25201 36936 ft 431 kts 196°
2026-05-05 19:36 41.42199 0.23742 36939 ft 431 kts 196°
2026-05-05 19:36 41.36305 0.22289 36942 ft 430 kts 196°
2026-05-05 19:37 41.30417 0.20827 36943 ft 430 kts 196°
2026-05-05 19:37 41.24530 0.19371 36956 ft 430 kts 196°
2026-05-05 19:38 41.18683 0.17935 36941 ft 429 kts 197°
2026-05-05 19:38 41.12821 0.16450 36949 ft 426 kts 200°
2026-05-05 19:39 41.07173 0.14202 36956 ft 423 kts 202°
2026-05-05 19:39 41.01543 0.11926 36961 ft 423 kts 202°
2026-05-05 19:40 40.95918 0.09663 36962 ft 422 kts 202°
2026-05-05 19:40 40.90302 0.07407 36968 ft 421 kts 203°
2026-05-05 19:41 40.84706 0.05147 36969 ft 420 kts 203°
2026-05-05 19:41 40.79139 0.02907 36967 ft 420 kts 203°
2026-05-05 19:42 40.73543 0.00674 36969 ft 420 kts 203°
2026-05-05 19:42 40.67954 -0.01556 36968 ft 419 kts 203°
2026-05-05 19:43 40.62373 -0.03777 36968 ft 418 kts 203°
2026-05-05 19:43 40.56797 -0.05989 36978 ft 418 kts 203°
2026-05-05 19:44 40.51219 -0.08203 36974 ft 418 kts 203°
2026-05-05 19:44 40.45687 -0.10400 36975 ft 418 kts 203°
2026-05-05 19:45 40.40109 -0.12610 36978 ft 418 kts 203°
2026-05-05 19:45 40.34526 -0.14817 36977 ft 418 kts 203°
2026-05-05 19:46 40.28943 -0.17011 36971 ft 419 kts 203°
2026-05-05 19:46 40.23395 -0.19190 36960 ft 419 kts 203°
2026-05-05 19:47 40.17807 -0.21388 36955 ft 419 kts 203°
2026-05-05 19:47 40.12217 -0.23587 36946 ft 419 kts 203°
2026-05-05 19:48 40.06626 -0.25779 36938 ft 420 kts 203°
2026-05-05 19:48 40.01030 -0.27971 36923 ft 420 kts 203°
2026-05-05 19:49 39.95425 -0.30164 36910 ft 420 kts 203°
2026-05-05 19:49 39.89814 -0.32345 36907 ft 420 kts 203°
2026-05-05 19:50 39.84210 -0.34519 36898 ft 420 kts 203°
2026-05-05 19:50 39.78640 -0.36678 36900 ft 420 kts 203°
2026-05-05 19:51 39.73028 -0.38850 36897 ft 420 kts 203°
2026-05-05 19:51 39.67426 -0.41025 36897 ft 420 kts 203°
2026-05-05 19:52 39.61820 -0.43200 36900 ft 420 kts 203°
2026-05-05 19:52 39.56222 -0.45361 36904 ft 419 kts 203°
2026-05-05 19:53 39.50596 -0.47430 36910 ft 423 kts 197°
2026-05-05 19:53 39.44617 -0.47613 36910 ft 441 kts 179°
2026-05-05 19:54 39.38551 -0.46485 36909 ft 440 kts 179°
2026-05-05 19:54 39.32485 -0.45379 36909 ft 440 kts 180°
2026-05-05 19:55 39.26465 -0.44293 36903 ft 439 kts 180°
2026-05-05 19:55 39.20415 -0.43199 36901 ft 438 kts 180°
2026-05-05 19:56 39.14374 -0.42108 36904 ft 438 kts 180°
2026-05-05 19:56 39.08332 -0.41018 36927 ft 438 kts 180°
2026-05-05 19:57 39.02295 -0.39944 36943 ft 438 kts 180°
2026-05-05 19:57 38.96249 -0.38867 36960 ft 439 kts 180°
2026-05-05 19:58 38.90202 -0.37780 36973 ft 439 kts 180°
2026-05-05 19:58 38.84142 -0.36698 36976 ft 440 kts 180°
2026-05-05 19:59 38.78116 -0.35625 36975 ft 440 kts 180°
2026-05-05 19:59 38.72054 -0.34552 36973 ft 440 kts 180°
2026-05-05 20:00 38.65985 -0.33480 36960 ft 440 kts 180°
2026-05-05 20:00 38.59910 -0.32394 36944 ft 441 kts 180°
2026-05-05 20:01 38.53838 -0.31311 36928 ft 441 kts 180°
2026-05-05 20:01 38.47762 -0.30237 36912 ft 441 kts 180°
2026-05-05 20:02 38.41685 -0.29171 36914 ft 440 kts 180°
2026-05-05 20:02 38.35643 -0.28112 36917 ft 440 kts 180°
2026-05-05 20:03 38.29574 -0.27032 36910 ft 440 kts 179°
2026-05-05 20:03 38.23498 -0.25939 36908 ft 440 kts 179°
2026-05-05 20:04 38.17418 -0.24864 36906 ft 440 kts 180°
2026-05-05 20:04 38.11385 -0.23797 36910 ft 440 kts 179°
2026-05-05 20:05 38.05303 -0.22715 36907 ft 441 kts 179°
2026-05-05 20:05 37.99223 -0.21660 36906 ft 441 kts 180°
2026-05-05 20:06 37.93126 -0.20604 36931 ft 443 kts 179°
2026-05-05 20:06 37.87024 -0.19541 36931 ft 447 kts 179°
2026-05-05 20:07 37.80828 -0.18464 36930 ft 450 kts 179°
2026-05-05 20:07 37.74611 -0.17380 36928 ft 451 kts 179°
2026-05-05 20:07 37.71502 -0.16834 36685 ft 452 kts 179°
2026-05-05 20:08 37.68392 -0.16290 35987 ft 449 kts 179°
2026-05-05 20:08 37.65312 -0.15755 35265 ft 446 kts 179°
2026-05-05 20:08 37.62232 -0.15224 34463 ft 445 kts 179°
2026-05-05 20:08 37.59166 -0.14698 33563 ft 446 kts 179°
2026-05-05 20:09 37.56091 -0.14171 32638 ft 446 kts 179°
2026-05-05 20:09 37.53052 -0.13649 31736 ft 447 kts 179°
2026-05-05 20:09 37.49958 -0.13115 30774 ft 449 kts 179°
2026-05-05 20:09 37.46851 -0.12580 29752 ft 452 kts 179°
2026-05-05 20:10 37.43730 -0.12043 28636 ft 454 kts 178°
2026-05-05 20:10 37.40592 -0.11504 27528 ft 456 kts 178°
2026-05-05 20:10 37.37437 -0.10964 26353 ft 459 kts 178°
2026-05-05 20:10 37.34256 -0.10423 25419 ft 459 kts 177°
2026-05-05 20:11 37.31129 -0.09884 24722 ft 451 kts 177°
2026-05-05 20:11 37.28024 -0.09347 23957 ft 448 kts 177°
2026-05-05 20:11 37.24955 -0.08817 23157 ft 444 kts 177°
2026-05-05 20:11 37.21906 -0.08292 22425 ft 439 kts 177°
2026-05-05 20:12 37.18898 -0.07773 21738 ft 433 kts 177°
2026-05-05 20:12 37.15926 -0.07262 21070 ft 428 kts 177°
2026-05-05 20:12 37.12979 -0.06761 20414 ft 424 kts 177°
2026-05-05 20:12 37.11047 -0.06434 19986 ft 421 kts 176°
2026-05-05 20:13 37.08152 -0.05942 19346 ft 418 kts 176°
2026-05-05 20:13 37.04348 -0.05293 18529 ft 414 kts 176°
2026-05-05 20:13 37.01504 -0.04807 17887 ft 411 kts 176°
2026-05-05 20:13 36.98688 -0.04322 17320 ft 406 kts 176°
2026-05-05 20:14 36.96841 -0.04004 16954 ft 403 kts 176°
2026-05-05 20:14 36.94084 -0.03531 16434 ft 398 kts 176°
2026-05-05 20:14 36.91352 -0.03069 15909 ft 394 kts 176°
2026-05-05 20:14 36.88647 -0.02613 15392 ft 390 kts 176°
2026-05-05 20:15 36.85977 -0.02163 14870 ft 386 kts 176°
2026-05-05 20:15 36.83322 -0.01724 14342 ft 383 kts 176°
2026-05-05 20:15 36.80682 -0.01298 13800 ft 381 kts 177°
2026-05-05 20:15 36.78059 -0.00881 13200 ft 378 kts 176°
2026-05-05 20:16 36.75469 -0.00471 12620 ft 375 kts 176°
2026-05-05 20:16 36.72888 -0.00058 12037 ft 371 kts 176°
2026-05-05 20:16 36.70336 0.00354 11431 ft 369 kts 176°
2026-05-05 20:16 36.67805 0.00766 10959 ft 363 kts 176°
2026-05-05 20:17 36.65351 0.01169 10835 ft 347 kts 176°
2026-05-05 20:17 36.62997 0.01554 10714 ft 341 kts 176°
2026-05-05 20:17 36.60538 0.01942 10632 ft 366 kts 176°
2026-05-05 20:17 36.57975 0.02343 10479 ft 376 kts 176°
2026-05-05 20:18 36.55406 0.02751 10311 ft 378 kts 176°
2026-05-05 20:18 36.52779 0.03175 10147 ft 384 kts 175°
2026-05-05 20:18 36.50120 0.03608 9975 ft 387 kts 175°
2026-05-05 20:18 36.47442 0.04046 9296 ft 389 kts 175°
2026-05-05 20:19 36.44786 0.04479 8375 ft 379 kts 175°
2026-05-05 20:19 36.42194 0.04900 7482 ft 373 kts 175°
2026-05-05 20:19 36.39626 0.05312 6693 ft 369 kts 175°
2026-05-05 20:19 36.37093 0.05714 6161 ft 366 kts 176°
2026-05-05 20:20 36.34575 0.06113 6044 ft 366 kts 176°
2026-05-05 20:20 36.32044 0.06515 6053 ft 366 kts 176°
2026-05-05 20:20 36.29547 0.06918 6011 ft 365 kts 176°
2026-05-05 20:20 36.27000 0.07338 5926 ft 365 kts 175°
2026-05-05 20:21 36.24517 0.07760 5844 ft 364 kts 175°
2026-05-05 20:21 36.22005 0.08191 5764 ft 364 kts 175°
2026-05-05 20:21 36.19502 0.08620 5683 ft 363 kts 175°
2026-05-05 20:21 36.16998 0.09045 5603 ft 363 kts 175°
2026-05-05 20:22 36.14490 0.09470 5519 ft 363 kts 175°
2026-05-05 20:22 36.11989 0.09892 5437 ft 362 kts 175°
2026-05-05 20:22 36.09485 0.10316 5360 ft 362 kts 175°
2026-05-05 20:22 36.06986 0.10741 5283 ft 362 kts 175°
2026-05-05 20:23 36.04496 0.11166 5202 ft 362 kts 175°
2026-05-05 20:23 36.01999 0.11590 5086 ft 362 kts 175°
2026-05-05 20:23 35.99507 0.12013 5008 ft 361 kts 175°
2026-05-05 20:23 35.97013 0.12434 4928 ft 361 kts 175°
2026-05-05 20:24 35.94553 0.12848 4852 ft 361 kts 175°
2026-05-05 20:24 35.92030 0.13233 4777 ft 360 kts 180°
2026-05-05 20:24 35.89639 0.12774 4686 ft 351 kts 205°
2026-05-05 20:24 35.87686 0.11056 4614 ft 345 kts 231°
2026-05-05 20:25 35.86506 0.08513 4536 ft 338 kts 249°
2026-05-05 20:25 35.85846 0.05901 4449 ft 301 kts 256°
2026-05-05 20:25 35.85346 0.03508 4385 ft 276 kts 256°
2026-05-05 20:25 35.84885 0.01306 4318 ft 254 kts 256°
2026-05-05 20:26 35.84460 -0.00723 4257 ft 234 kts 256°
2026-05-05 20:26 35.83962 -0.02535 4211 ft 215 kts 248°
2026-05-05 20:26 35.83371 -0.04150 4160 ft 199 kts 246°
2026-05-05 20:26 35.82782 -0.05652 4014 ft 192 kts 245°
2026-05-05 20:27 35.82205 -0.07116 3903 ft 189 kts 245°
2026-05-05 20:27 35.81638 -0.08568 3888 ft 182 kts 245°
2026-05-05 20:27 35.81118 -0.09911 3845 ft 166 kts 246°
2026-05-05 20:27 35.80614 -0.11230 3810 ft 175 kts 246°
2026-05-05 20:28 35.80096 -0.12599 3776 ft 181 kts 246°
2026-05-05 20:28 35.79547 -0.14063 3730 ft 192 kts 246°
2026-05-05 20:28 35.78982 -0.15566 3687 ft 194 kts 246°
2026-05-05 20:28 35.78414 -0.17076 3642 ft 194 kts 246°
2026-05-05 20:29 35.77847 -0.18584 3596 ft 194 kts 246°
2026-05-05 20:29 35.77281 -0.20091 3560 ft 194 kts 246°
2026-05-05 20:29 35.76715 -0.21596 3524 ft 194 kts 246°
2026-05-05 20:29 35.76150 -0.23098 3477 ft 194 kts 246°
2026-05-05 20:30 35.75502 -0.24555 3438 ft 195 kts 234°
2026-05-05 20:30 35.74741 -0.25902 3397 ft 194 kts 243°
2026-05-05 20:30 35.74162 -0.27398 3362 ft 193 kts 248°
2026-05-05 20:30 35.73633 -0.28920 3315 ft 193 kts 249°
2026-05-05 20:31 35.73115 -0.30446 3271 ft 193 kts 249°
2026-05-05 20:31 35.72599 -0.31977 3228 ft 193 kts 249°
2026-05-05 20:31 35.72084 -0.33500 3212 ft 192 kts 249°
2026-05-05 20:31 35.71568 -0.35028 3271 ft 194 kts 249°
2026-05-05 20:32 35.71052 -0.36557 3275 ft 193 kts 249°
2026-05-05 20:32 35.70537 -0.38080 3277 ft 193 kts 249°
2026-05-05 20:32 35.70025 -0.39594 3261 ft 193 kts 249°
2026-05-05 20:32 35.69507 -0.41125 3260 ft 193 kts 249°
2026-05-05 20:33 35.69007 -0.42602 3245 ft 178 kts 249°
2026-05-05 20:33 35.68545 -0.43963 3116 ft 167 kts 249°
2026-05-05 20:33 35.68107 -0.45257 2930 ft 161 kts 249°
2026-05-05 20:33 35.67682 -0.46511 2736 ft 156 kts 249°
2026-05-05 20:34 35.67276 -0.47708 2521 ft 147 kts 249°
2026-05-05 20:34 35.66889 -0.48851 2359 ft 143 kts 248°
2026-05-05 20:34 35.66522 -0.49976 2136 ft 141 kts 249°
2026-05-05 20:34 35.66175 -0.51103 1931 ft 140 kts 250°
2026-05-05 20:35 35.65837 -0.52205 1713 ft 139 kts 248°
2026-05-05 20:35 35.65449 -0.53295 1507 ft 139 kts 244°
2026-05-05 20:35 35.65032 -0.54375 1352 ft 141 kts 245°
2026-05-05 20:35 35.64644 -0.55475 1166 ft 139 kts 248°
2026-05-05 20:36 35.64280 -0.56588 973 ft 141 kts 247°
2026-05-05 20:36 35.63897 -0.57693 806 ft 140 kts 245°
2026-05-05 20:36 35.63523 -0.58793 636 ft 139 kts 247°
2026-05-05 20:36 35.63146 -0.59892 455 ft 139 kts 245°
2026-05-05 20:37 35.62775 -0.60977 310 ft 131 kts 246°
2026-05-05 20:37 35.62478 -0.61842 303 ft 85 kts 247°
2026-05-05 20:37 35.62319 -0.62303 305 ft 30 kts 246°
2026-05-05 20:37 35.62263 -0.62436 307 ft 12 kts 235°
2026-05-05 20:38 35.62180 -0.62473 308 ft 11 kts 177°
2026-05-05 20:38 35.62102 -0.62428 306 ft 14 kts 157°
2026-05-05 20:38 35.62003 -0.62377 306 ft 15 kts 157°
2026-05-05 20:38 35.61902 -0.62325 307 ft 17 kts 158°
2026-05-05 20:39 35.61807 -0.62230 306 ft 19 kts 116°
2026-05-05 20:39 35.61806 -0.62079 308 ft 17 kts 68°
2026-05-05 20:39 35.61849 -0.61952 308 ft 15 kts 67°
2026-05-05 20:39 35.61890 -0.61839 307 ft 14 kts 65°
2026-05-05 20:40 35.61927 -0.61733 307 ft 16 kts 66°
2026-05-05 20:40 35.61970 -0.61610 307 ft 13 kts 67°
2026-05-05 20:40 35.61993 -0.61545 307 ft 7 kts 67°
2026-05-05 20:40 35.62012 -0.61490 307 ft 0 kts 67°
2026-05-05 20:41 35.62030 -0.61430 308 ft 13 kts 80°
2026-05-05 20:41 35.61980 -0.61357 307 ft 12 kts 124°
2026-05-05 20:41 35.62004 -0.61217 309 ft 19 kts 68°
2026-05-05 20:41 35.62037 -0.61105 308 ft 8 kts 87°
2026-05-05 20:42 35.62057 -0.61051 309 ft 6 kts 60°
2026-05-05 20:42 35.62054 -0.61013 309 ft 4 kts 134°
2026-05-05 20:42 35.62031 -0.61004 307 ft 3 kts 179°
2026-05-05 20:42 35.62011 -0.61009 307 ft 2 kts 199°
2026-05-05 20:43 35.62000 -0.61015 308 ft 1 kts 202°
2026-05-05 20:43 35.61997 -0.61016 307 ft 0 kts 201°